Location: B�di�
(14.6834°N, 3.1047°W)
Time: 15:40:20
(UTC+00:00)

Intelsat 5-2 Rocket - Pass Details

Date: 24 January 2020
Orbit: 329 x 10154 km, 23.6° (Epoch: 23 February)

Event Time Altitude Azimuth Distance (km) Brightness Sun altitude
Rises 19:43:06 0° 265° (W) 2,306 7.4 -23.0°
Reaches altitude 10° 19:44:35 10° 271° (W) 1,652 6.3 -23.3°
Maximum altitude 19:47:53 56° 351° (N) 891 3.7 -24.1°
Enters shadow 19:48:43 50° 28° (NNE) 1,060 3.9 -24.3°
